Weather observations for the past three days for
Bridgeport, Sikorsky Memorial Airport
Metric (Imperial)
Date Time (edt) Wind (kph) Vis. (km) Weather Sky Cond. Temperature (ºC) Relative Humidity Wind Chill (°C) Heat Index (°C) Pressure Precipitation (cm)
Air Dwpt 6 hour altimeter (cm) sea level (mb) 1 hr 3 hr 6 hr
Max. Min.
04 02:52 SW 13 9.66 Light Rain Fog/Mist SCT042 BKN100 OVC120 23.3 22.8 97% 75.79 1010.3 0.1
04 01:52 NW 6 9.66 Light Rain Fog/Mist BKN070 BKN080 OVC110 23.3 22.8 26.1 23.3 97% 75.82 1010.7 0.03 0.05
04 00:52 Calm 11.27 Overcast OVC075 23.3 22.8 97% 75.84 1011.0 0.03
03 23:52 SW 6 8.05 Light Rain Fog/Mist FEW030 SCT075 BKN110 24.4 23.3 94% 24 75.87 1011.3
03 22:52 SW 9 16.09 Fair CLR 24.4 22.8 91% 24 75.9 1011.9
03 21:52 SW 6 16.09 Fair CLR 24.4 22.8 91% 24 75.92 1012.2
03 20:52 SW 11 16.09 Fair CLR 25 22.2 85% 26 75.92 1012.2
03 19:52 S 9 16.09 Fair CLR 25.6 22.2 30 25.6 82% 27 75.87 1011.5
03 18:52 SW 7 16.09 Fair CLR 26.7 21.1 71% 28 75.9 1011.7
03 17:52 SW 9 16.09 Fair CLR 26.7 21.1 71% 28 75.9 1011.9
03 16:52 SW 15 16.09 Partly Cloudy FEW038 SCT055 27.2 21.1 69% 29 75.9 1011.8
03 15:52 Vrbl 11 16.09 Mostly Cloudy FEW037 BKN049 28.9 20.6 61% 31 75.9 1011.8
03 14:52 W 13 16.09 Mostly Cloudy BKN035 27.8 21.7 69% 30 75.95 1012.3
03 13:52 SW 20 16.09 Mostly Cloudy BKN028 26.7 21.1 26.7 21.7 71% 28 75.97 1012.8
03 12:52 SW 22 16.09 Mostly Cloudy BKN017 25 21.1 79% 26 76 1013.1
03 11:52 SW 22 16.09 Partly Cloudy SCT009 24.4 20.6 79% 25 76.05 1013.7
03 10:52 SW 22 16.09 Partly Cloudy SCT009 23.9 20.6 82% 24 76.07 1014.3
03 09:52 SW 15 16.09 Fair CLR 22.8 20.6 87% 76.1 1014.4
03 08:52 SW 11 16.09 A Few Clouds FEW090 22.8 20.6 87% 76.12 1014.8
03 07:52 SW 7 14.48 Mostly Cloudy FEW080 BKN110 21.7 20.6 21.7 20.6 94% 76.15 1015.1 0.1
03 06:52 W 11 11.27 Overcast OVC007 21.7 20.6 94% 76.17 1015.4
03 05:52 W 7 16.09 Overcast OVC008 21.7 20.6 94% 76.1 1014.6
03 04:52 SW 6 16.09 Overcast SCT008 OVC015 21.1 20.6 97% 76.12 1014.7 0.1
03 03:52 Calm 16.09 Overcast OVC009 20.6 20 96% 76.17 1015.4
03 02:52 Calm 14.48 Light Rain SCT006 OVC012 20.6 20 96% 76.2 1015.8 0.1
03 01:52 Calm 4.83 Light Rain Fog/Mist OVC013 20.6 20 21.1 20.6 96% 76.28 1016.8 0.15 0.2
02 23:52 SE 9 16.09 Overcast OVC016 21.1 18.9 87% 76.38 1018.1
02 22:52 E 13 16.09 Overcast OVC017 21.1 18.3 84% 76.4 1018.7
02 21:52 SE 17 16.09 Overcast OVC018 21.1 18.3 84% 76.43 1019.0
02 20:52 SE 17 16.09 Overcast BKN019 BKN050 OVC065 21.1 17.8 82% 76.45 1019.4
02 19:52 E 15 G 33 16.09 Overcast FEW022 BKN050 OVC065 21.1 17.8 22.2 20 82% 76.4 1018.5 0.18
02 18:52 E 17 16.09 Overcast BKN021 BKN027 OVC047 21.1 17.8 82% 76.48 1019.7
02 17:52 E 13 16.09 Overcast SCT025 BKN070 OVC110 21.7 17.2 76% 76.5 1020.0
02 16:52 E 15 16.09 A Few Clouds FEW110 21.1 17.2 79% 76.48 1019.7 0.03 0.18
02 12:52 E 20 16.09 Overcast OVC041 21.1 16.1 73% 76.56 1020.4
02 11:52 E 24 16.09 Partly Cloudy SCT044 21.1 16.7 76% 76.58 1020.9
02 10:52 E 19 16.09 Overcast OVC031 20.6 16.1 76% 76.58 1021.1
02 09:52 E 15 16.09 Overcast SCT018 OVC031 20 15.6 76% 76.58 1021.1
02 08:52 NE 17 16.09 Overcast BKN015 OVC031 19.4 16.1 81% 76.56 1020.5
02 07:52 NE 17 16.09 Overcast OVC022 18.3 15.6 18.3 17.2 84% 76.56 1020.5
02 06:52 NE 15 16.09 Overcast OVC023 17.8 15.6 87% 76.56 1020.5
02 05:52 NE 15 16.09 Overcast OVC020 17.8 15.6 87% 76.5 1020.0
02 04:52 NE 17 16.09 Overcast OVC015 17.8 15.6 87% 76.48 1019.4
02 03:52 NE 15 16.09 Overcast OVC014 17.8 16.1 90% 76.45 1019.2
02 02:52 N 11 16.09 Overcast OVC010 17.8 16.1 90% 76.43 1018.9
02 01:52 N 17 16.09 Overcast OVC007 17.2 16.7 19.4 17.2 97% 76.43 1019.0
02 00:52 NE 15 14.48 Overcast OVC008 17.2 16.7 97% 76.43 1018.9
01 23:52 NE 17 4.02 Fog/Mist OVC007 17.8 16.7 93% 76.4 1018.5
01 22:52 NE 17 16.09 Overcast OVC010 18.3 16.1 87% 76.38 1018.4
01 21:52 NE 17 16.09 Overcast OVC010 18.3 16.7 90% 76.35 1017.7
01 19:52 NE 24 G 39 16.09 Overcast OVC014 19.4 16.7 23.9 19.4 84% 76.28 1016.8
01 18:52 E 35 16.09 Overcast and Breezy OVC016 20.6 17.2 81% 76.23 1016.1
01 17:52 E 30 16.09 Overcast OVC009 21.1 18.3 84% 76.15 1015.3
01 16:52 E 28 12.87 Overcast OVC006 21.1 20 93% 76.17 1015.3
01 15:52 E 20 12.87 Overcast OVC006 22.2 20.6 91% 76.12 1014.9
01 14:52 SE 7 14.48 Overcast OVC007 23.3 21.7 91% 76.1 1014.5
01 13:52 S 9 14.48 Overcast BKN006 OVC014 23.3 22.2 23.3 21.7 94% 76.12 1014.7 0.51
01 11:52 SW 11 4.83 Light Rain Fog/Mist BKN006 OVC015 22.2 21.7 97% 76.2 1016.0 0.03
01 10:52 S 7 2.82 Light Rain Fog/Mist OVC006 22.2 21.7 97% 76.2 1015.8 0.18 0.48
01 09:52 S 7 1.21 Rain Fog/Mist OVC008 22.2 21.1 94% 76.23 1016.2 0.3
01 08:52 S 7 16.09 Overcast OVC008 22.2 21.1 94% 76.2 1016.0
01 07:52 S 6 14.48 Overcast BKN009 OVC012 21.7 20.6 21.7 20.6 94% 76.23 1016.3 2.26
01 06:52 S 7 16.09 Overcast OVC017 21.1 20.6 97% 76.23 1016.2
01 05:52 S 6 16.09 Overcast BKN007 OVC023 21.1 20.6 97% 76.23 1016.1 0.08
01 04:52 S 6 4.02 Light Rain Fog/Mist OVC004 21.1 20.6 97% 76.25 1016.4 0.15 2.18
01 03:52 S 11 4.83 Light Rain Fog/Mist FEW008 BKN016 OVC024 20.6 20.6 100% 76.28 1016.8 1.4
Date Time (edt) Wind (kph) Vis. (km) Weather Sky Cond. Air Dwpt Max. Min. Relative Humidity Wind Chill (°C) Heat Index (°C) altimeter (cm) sea level (mb) 1 hr 3 hr 6 hr
6 hour
Temperature (ºC) Pressure Precipitation (cm)